Tracking 27122 objects as of 24-Mar-2023
HD Live streaming from Space Station
objects crossing your sky now

STARLINK-3930

Track STARLINK-3930 now!
10-day predictions
STARLINK-3930 is classified as:


NORAD ID: 52568
Int'l Code: 2022-051AM
Perigee: 546.0 km
Apogee: 547.8 km
Inclination: 53.2 °
Period: 95.4 minutes
Semi major axis: 6917 km
RCS: Unknown
Launch date: May 13, 2022
Source: United States (US)
Launch site: AIR FORCE WESTERN TEST RANGE (AFWTR)
Your satellite tracking list
Your tracking list is empty




NASA's NSSDC Master Catalog

Two Line Element Set (TLE):
1 52568U 22051AM  23082.85976252  .00017335  00000-0  11044-2 0  9996
2 52568  53.2131 295.6471 0001289  66.2622 293.8506 15.08845132 48339
Source of the keplerian elements: AFSPC